FHV2 KSAW-KGPT

Flight info

Callsign FHV2
Flight time 2h 31m
Altitude 36000
Route BGOSH LYSEN PIA T301 SPI J137 FAM J35 ZYDCO
Aircraft B737/M-SDE2E3FGHIRWXY/LB1

Departure

Time 2026-04-13 20:41
Airport Marquette/Sawyer International Airport (KSAW)

Arrival

Time 2026-04-13 23:12
Airport Gulfport Biloxi International Airport (KGPT)
Time Latitude Longitude Altitude Speed Heading
2026-04-13 20:25 46.34694 -87.39061 1199 ft 0 kts 107°
2026-04-13 20:38 46.34690 -87.39058 1217 ft 2 kts 141°
2026-04-13 20:38 46.34650 -87.39091 1198 ft 13 kts 214°
2026-04-13 20:38 46.34533 -87.39143 1197 ft 19 kts 188°
2026-04-13 20:38 46.34405 -87.39172 1196 ft 18 kts 194°
2026-04-13 20:39 46.34345 -87.39318 1195 ft 16 kts 238°
2026-04-13 20:39 46.34246 -87.39356 1194 ft 15 kts 188°
2026-04-13 20:39 46.34139 -87.39381 1193 ft 17 kts 189°
2026-04-13 20:39 46.34016 -87.39410 1192 ft 19 kts 189°
2026-04-13 20:40 46.33876 -87.39441 1190 ft 22 kts 189°
2026-04-13 20:40 46.33721 -87.39480 1188 ft 22 kts 205°
2026-04-13 20:40 46.33702 -87.39690 1188 ft 23 kts 280°
2026-04-13 20:40 46.33760 -87.39894 1189 ft 24 kts 342°
2026-04-13 20:41 46.34077 -87.39831 1189 ft 81 kts
2026-04-13 20:41 46.34860 -87.39653 1201 ft 144 kts
2026-04-13 20:41 46.35992 -87.39390 1468 ft 175 kts 11°
2026-04-13 20:41 46.37230 -87.39126 2299 ft 182 kts
2026-04-13 20:42 46.38436 -87.39207 3333 ft 171 kts 334°
2026-04-13 20:42 46.39336 -87.40377 3724 ft 188 kts 291°
2026-04-13 20:42 46.39482 -87.42335 4018 ft 211 kts 257°
2026-04-13 20:42 46.38727 -87.44231 4457 ft 228 kts 223°
2026-04-13 20:43 46.37451 -87.45581 5208 ft 232 kts 218°
2026-04-13 20:43 46.36091 -87.46881 5944 ft 236 kts 218°
2026-04-13 20:43 46.34655 -87.48243 6450 ft 255 kts 218°
2026-04-13 20:43 46.33153 -87.49668 7256 ft 260 kts 219°
2026-04-13 20:44 46.31636 -87.51113 8134 ft 262 kts 219°
2026-04-13 20:44 46.30104 -87.52578 8973 ft 266 kts 220°
2026-04-13 20:44 46.28558 -87.54066 9847 ft 268 kts 221°
2026-04-13 20:44 46.26987 -87.55586 10475 ft 279 kts 221°
2026-04-13 20:45 46.25297 -87.57234 10675 ft 305 kts 220°
2026-04-13 20:45 46.23469 -87.59021 10864 ft 329 kts 220°
2026-04-13 20:45 46.21521 -87.60925 11230 ft 343 kts 219°
2026-04-13 20:46 46.17509 -87.64816 12765 ft 349 kts 219°
2026-04-13 20:46 46.15495 -87.66761 13619 ft 349 kts 219°
2026-04-13 20:46 46.13463 -87.68727 14298 ft 353 kts 219°
2026-04-13 20:46 46.11403 -87.70720 14927 ft 359 kts 219°
2026-04-13 20:47 46.09319 -87.72739 15576 ft 363 kts 219°
2026-04-13 20:47 46.07233 -87.74760 16222 ft 368 kts 219°
2026-04-13 20:47 46.05098 -87.76827 16846 ft 372 kts 219°
2026-04-13 20:47 46.02928 -87.78925 17480 ft 377 kts 219°
2026-04-13 20:48 46.00742 -87.81037 18155 ft 380 kts 219°
2026-04-13 20:48 45.98535 -87.83166 18753 ft 383 kts 218°
2026-04-13 20:48 45.96320 -87.85301 19412 ft 383 kts 218°
2026-04-13 20:48 45.94099 -87.87440 20047 ft 385 kts 218°
2026-04-13 20:49 45.91869 -87.89584 20647 ft 387 kts 218°
2026-04-13 20:49 45.89624 -87.91742 21217 ft 389 kts 218°
2026-04-13 20:49 45.87365 -87.93912 21764 ft 392 kts 218°
2026-04-13 20:49 45.85091 -87.96094 22309 ft 394 kts 218°
2026-04-13 20:50 45.82831 -87.98261 22832 ft 397 kts 218°
2026-04-13 20:50 45.80523 -88.00471 23316 ft 400 kts 219°
2026-04-13 20:50 45.78192 -88.02703 23743 ft 403 kts 219°
2026-04-13 20:50 45.75851 -88.04940 24192 ft 405 kts 219°
2026-04-13 20:51 45.73505 -88.07179 24648 ft 406 kts 219°
2026-04-13 20:51 45.71147 -88.09427 25054 ft 408 kts 220°
2026-04-13 20:51 45.68770 -88.11692 25466 ft 410 kts 220°
2026-04-13 20:51 45.66397 -88.13951 25891 ft 410 kts 220°
2026-04-13 20:52 45.64015 -88.16215 26297 ft 412 kts 220°
2026-04-13 20:52 45.61625 -88.18484 26693 ft 413 kts 221°
2026-04-13 20:52 45.59263 -88.20725 27081 ft 413 kts 221°
2026-04-13 20:52 45.56867 -88.22995 27480 ft 414 kts 221°
2026-04-13 20:53 45.54459 -88.25274 27855 ft 415 kts 221°
2026-04-13 20:53 45.52052 -88.27551 28256 ft 415 kts 221°
2026-04-13 20:53 45.49654 -88.29815 28801 ft 411 kts 222°
2026-04-13 20:53 45.47279 -88.32050 29438 ft 406 kts 222°
2026-04-13 20:54 45.44933 -88.34256 30092 ft 400 kts 222°
2026-04-13 20:54 45.43400 -88.35697 30415 ft 398 kts 223°
2026-04-13 20:54 45.41086 -88.37876 30798 ft 397 kts 223°
2026-04-13 20:54 45.38778 -88.40050 31122 ft 398 kts 222°
2026-04-13 20:55 45.35721 -88.42926 31600 ft 397 kts 222°
2026-04-13 20:55 45.34170 -88.44381 31881 ft 395 kts 222°
2026-04-13 20:55 45.31879 -88.46529 32285 ft 393 kts 222°
2026-04-13 20:55 45.29600 -88.48663 32657 ft 392 kts 222°
2026-04-13 20:56 45.27326 -88.50791 32994 ft 391 kts 222°
2026-04-13 20:56 45.25055 -88.52916 33332 ft 390 kts 222°
2026-04-13 20:56 45.22819 -88.55003 33713 ft 388 kts 222°
2026-04-13 20:56 45.20568 -88.57103 34073 ft 386 kts 222°
2026-04-13 20:57 45.18324 -88.59194 34333 ft 386 kts 222°
2026-04-13 20:57 45.16079 -88.61285 34562 ft 386 kts 222°
2026-04-13 20:57 45.13833 -88.63377 34821 ft 385 kts 222°
2026-04-13 20:57 45.11590 -88.65464 35059 ft 385 kts 222°
2026-04-13 20:58 45.09347 -88.67548 35285 ft 385 kts 222°
2026-04-13 20:58 45.07108 -88.69625 35535 ft 384 kts 221°
2026-04-13 20:58 45.04871 -88.71698 35811 ft 383 kts 221°
2026-04-13 20:59 45.00387 -88.75850 35883 ft 385 kts 221°
2026-04-13 20:59 44.95919 -88.79974 35876 ft 381 kts 221°
2026-04-13 21:00 44.91517 -88.84028 35872 ft 378 kts 221°
2026-04-13 21:00 44.87121 -88.88077 35866 ft 377 kts 221°
2026-04-13 21:01 44.82699 -88.92144 35885 ft 382 kts 221°
2026-04-13 21:01 44.78231 -88.96245 35877 ft 384 kts 221°
2026-04-13 21:02 44.73746 -89.00348 35868 ft 384 kts 220°
2026-04-13 21:02 44.69262 -89.04443 35867 ft 384 kts 220°
2026-04-13 21:03 44.64778 -89.08530 35860 ft 383 kts 220°
2026-04-13 21:03 44.60300 -89.12604 35859 ft 383 kts 220°
2026-04-13 21:04 44.55856 -89.16643 35871 ft 383 kts 220°
2026-04-13 21:04 44.51372 -89.20709 35879 ft 383 kts 220°
2026-04-13 21:05 44.46900 -89.24756 35877 ft 382 kts 219°
2026-04-13 21:05 44.42431 -89.28793 35850 ft 382 kts 219°
2026-04-13 21:06 44.37964 -89.32821 35851 ft 381 kts 219°
2026-04-13 21:06 44.33531 -89.36811 35843 ft 382 kts 219°
2026-04-13 21:07 44.29014 -89.40724 35833 ft 386 kts 213°
2026-04-13 21:07 44.23873 -89.43255 35840 ft 397 kts 202°
2026-04-13 21:08 44.18289 -89.44225 35839 ft 408 kts 194°
2026-04-13 21:08 44.12617 -89.44685 35837 ft 407 kts 193°
2026-04-13 21:09 44.07007 -89.45130 35832 ft 406 kts 193°
2026-04-13 21:09 44.01380 -89.45606 35827 ft 404 kts 193°
2026-04-13 21:10 43.95761 -89.46099 35841 ft 404 kts 193°
2026-04-13 21:10 43.90158 -89.46603 35836 ft 403 kts 192°
2026-04-13 21:11 43.84549 -89.47098 35848 ft 404 kts 192°
2026-04-13 21:11 43.78913 -89.47595 35848 ft 406 kts 192°
2026-04-13 21:12 43.73279 -89.48087 35839 ft 406 kts 191°
2026-04-13 21:12 43.67636 -89.48533 35862 ft 409 kts 192°
2026-04-13 21:13 43.61937 -89.49004 35874 ft 415 kts 192°
2026-04-13 21:13 43.56103 -89.49539 35869 ft 423 kts 191°
2026-04-13 21:14 43.50195 -89.50091 35875 ft 427 kts 191°
2026-04-13 21:14 43.44271 -89.50617 35872 ft 424 kts 191°
2026-04-13 21:15 43.38410 -89.51130 35882 ft 421 kts 191°
2026-04-13 21:15 43.32594 -89.51637 35865 ft 423 kts 191°
2026-04-13 21:16 43.26685 -89.52151 35866 ft 425 kts 191°
2026-04-13 21:16 43.20764 -89.52664 35876 ft 428 kts 191°
2026-04-13 21:17 43.14795 -89.53177 35871 ft 431 kts 191°
2026-04-13 21:17 43.08787 -89.53694 35870 ft 433 kts 191°
2026-04-13 21:18 43.02743 -89.54216 35874 ft 436 kts 191°
2026-04-13 21:18 42.96718 -89.54731 35876 ft 437 kts 191°
2026-04-13 21:19 42.90654 -89.55248 35939 ft 438 kts 191°
2026-04-13 21:19 42.87607 -89.55510 35831 ft 438 kts 191°
2026-04-13 21:19 42.84585 -89.55766 35899 ft 432 kts 191°
2026-04-13 21:20 42.78597 -89.56271 35895 ft 430 kts 191°
2026-04-13 21:20 42.72640 -89.56777 35888 ft 428 kts 191°
2026-04-13 21:21 42.66689 -89.57284 35896 ft 427 kts 191°
2026-04-13 21:21 42.60759 -89.57791 35892 ft 427 kts 191°
2026-04-13 21:22 42.54822 -89.58297 35893 ft 428 kts 191°
2026-04-13 21:22 42.48873 -89.58801 35901 ft 429 kts 191°
2026-04-13 21:23 42.42884 -89.59302 35900 ft 432 kts 190°
2026-04-13 21:23 42.36877 -89.59808 35923 ft 433 kts 190°
2026-04-13 21:24 42.30880 -89.60323 35926 ft 434 kts 191°
2026-04-13 21:24 42.24859 -89.61017 35923 ft 434 kts 192°
2026-04-13 21:25 42.18827 -89.61763 35927 ft 434 kts 192°
2026-04-13 21:25 42.12814 -89.62492 35919 ft 433 kts 192°
2026-04-13 21:26 42.06809 -89.63208 35913 ft 433 kts 192°
2026-04-13 21:26 42.00807 -89.63922 35912 ft 432 kts 192°
2026-04-13 21:27 41.94821 -89.64631 35917 ft 431 kts 192°
2026-04-13 21:27 41.88884 -89.65327 35924 ft 431 kts 192°
2026-04-13 21:28 41.82915 -89.65994 35927 ft 430 kts 192°
2026-04-13 21:28 41.76955 -89.66701 35913 ft 429 kts 192°
2026-04-13 21:29 41.71013 -89.67421 35924 ft 426 kts 192°
2026-04-13 21:29 41.65111 -89.68126 35917 ft 427 kts 192°
2026-04-13 21:30 41.59236 -89.68808 35917 ft 426 kts 192°
2026-04-13 21:30 41.53336 -89.69501 35927 ft 427 kts 192°
2026-04-13 21:31 41.47399 -89.70183 35928 ft 428 kts 191°
2026-04-13 21:31 41.41513 -89.70856 35934 ft 426 kts 191°
2026-04-13 21:32 41.35561 -89.71552 35936 ft 428 kts 191°
2026-04-13 21:32 41.29649 -89.72241 35940 ft 430 kts 191°
2026-04-13 21:33 41.23671 -89.72934 35948 ft 432 kts 191°
2026-04-13 21:33 41.17681 -89.73624 35943 ft 433 kts 191°
2026-04-13 21:34 41.08667 -89.74658 35931 ft 433 kts 191°
2026-04-13 21:34 41.02657 -89.75347 35937 ft 433 kts 191°
2026-04-13 21:35 40.96685 -89.76030 35938 ft 433 kts 191°
2026-04-13 21:36 40.87614 -89.77056 35948 ft 442 kts 192°
2026-04-13 21:36 40.81423 -89.77779 35943 ft 449 kts 191°
2026-04-13 21:37 40.75179 -89.78474 35935 ft 450 kts 191°
2026-04-13 21:37 40.68945 -89.79252 35933 ft 451 kts 187°
2026-04-13 21:38 40.62581 -89.78721 35943 ft 464 kts 181°
2026-04-13 21:38 40.56159 -89.77764 35925 ft 464 kts 180°
2026-04-13 21:39 40.49803 -89.76805 35938 ft 461 kts 181°
2026-04-13 21:39 40.43442 -89.75903 35935 ft 460 kts 181°
2026-04-13 21:40 40.37078 -89.75024 35945 ft 458 kts 181°
2026-04-13 21:40 40.30742 -89.74161 35941 ft 457 kts 181°
2026-04-13 21:41 40.24425 -89.73300 35945 ft 456 kts 181°
2026-04-13 21:41 40.18117 -89.72438 35949 ft 455 kts 181°
2026-04-13 21:42 40.11816 -89.71579 35951 ft 454 kts 181°
2026-04-13 21:42 40.06594 -89.70868 35954 ft 454 kts 181°
2026-04-13 21:43 40.00297 -89.70009 35958 ft 455 kts 181°
2026-04-13 21:43 39.92975 -89.69016 35958 ft 455 kts 181°
2026-04-13 21:44 39.87694 -89.68301 35962 ft 456 kts 181°
2026-04-13 21:44 39.81497 -89.68335 35957 ft 442 kts 197°
2026-04-13 21:45 39.75508 -89.69943 35958 ft 438 kts 199°
2026-04-13 21:45 39.69528 -89.71588 35964 ft 439 kts 198°
2026-04-13 21:46 39.63528 -89.73172 35949 ft 439 kts 198°
2026-04-13 21:46 39.57535 -89.74764 35966 ft 439 kts 198°
2026-04-13 21:47 39.51569 -89.76338 35963 ft 440 kts 198°
2026-04-13 21:47 39.45525 -89.77888 35976 ft 444 kts 198°
2026-04-13 21:48 39.39468 -89.79486 35960 ft 444 kts 198°
2026-04-13 21:48 39.33422 -89.81081 35956 ft 443 kts 198°
2026-04-13 21:49 39.27400 -89.82655 35950 ft 444 kts 198°
2026-04-13 21:49 39.21333 -89.84234 35957 ft 444 kts 198°
2026-04-13 21:50 39.15272 -89.85807 35962 ft 444 kts 198°
2026-04-13 21:50 39.09200 -89.87380 35968 ft 445 kts 198°
2026-04-13 21:51 39.03160 -89.88942 35978 ft 445 kts 198°
2026-04-13 21:51 38.97089 -89.90511 35970 ft 445 kts 198°
2026-04-13 21:52 38.91085 -89.92056 35978 ft 445 kts 198°
2026-04-13 21:52 38.85014 -89.93616 35982 ft 444 kts 198°
2026-04-13 21:53 38.78953 -89.95181 35974 ft 446 kts 198°
2026-04-13 21:53 38.72899 -89.96731 35983 ft 445 kts 198°
2026-04-13 21:54 38.66821 -89.98285 35982 ft 445 kts 198°
2026-04-13 21:54 38.60752 -89.99844 35977 ft 444 kts 199°
2026-04-13 21:55 38.54689 -90.01393 35991 ft 443 kts 198°
2026-04-13 21:55 38.48674 -90.02920 35986 ft 444 kts 198°
2026-04-13 21:56 38.42620 -90.04459 35989 ft 444 kts 198°
2026-04-13 21:56 38.36559 -90.05997 35992 ft 444 kts 198°
2026-04-13 21:57 38.30486 -90.07537 35997 ft 445 kts 198°
2026-04-13 21:57 38.24406 -90.09075 36014 ft 445 kts 198°
2026-04-13 21:58 38.18346 -90.10605 36022 ft 446 kts 198°
2026-04-13 21:58 38.12266 -90.12161 36019 ft 446 kts 198°
2026-04-13 21:59 38.06169 -90.13691 36026 ft 446 kts 198°
2026-04-13 21:59 38.00084 -90.15209 36048 ft 446 kts 198°
2026-04-13 22:00 37.93980 -90.16736 36041 ft 447 kts 198°
2026-04-13 22:00 37.87864 -90.18267 36053 ft 447 kts 198°
2026-04-13 22:01 37.81747 -90.19796 36070 ft 448 kts 198°
2026-04-13 22:01 37.75609 -90.21329 36061 ft 449 kts 198°
2026-04-13 22:02 37.69521 -90.22841 36057 ft 449 kts 197°
2026-04-13 22:02 37.63178 -90.23163 36068 ft 463 kts 183°
2026-04-13 22:03 37.56735 -90.22483 36063 ft 464 kts 182°
2026-04-13 22:03 37.50293 -90.21777 36068 ft 465 kts 182°
2026-04-13 22:04 37.43833 -90.21117 36084 ft 465 kts 182°
2026-04-13 22:04 37.37429 -90.20482 36066 ft 465 kts 182°
2026-04-13 22:05 37.30985 -90.19851 36057 ft 462 kts 182°
2026-04-13 22:05 37.24563 -90.19217 36085 ft 463 kts 182°
2026-04-13 22:06 37.18140 -90.18619 36090 ft 462 kts 182°
2026-04-13 22:06 37.11712 -90.18015 36079 ft 464 kts 182°
2026-04-13 22:07 37.05267 -90.17399 36076 ft 464 kts 182°
2026-04-13 22:07 36.98866 -90.16786 36083 ft 464 kts 182°
2026-04-13 22:08 36.92417 -90.16165 36077 ft 464 kts 182°
2026-04-13 22:08 36.85969 -90.15547 36075 ft 465 kts 182°
2026-04-13 22:09 36.79518 -90.14932 36072 ft 465 kts 182°
2026-04-13 22:09 36.73064 -90.14317 36074 ft 465 kts 182°
2026-04-13 22:10 36.66608 -90.13702 36102 ft 464 kts 182°
2026-04-13 22:10 36.60160 -90.13090 36108 ft 464 kts 182°
2026-04-13 22:11 36.53718 -90.12479 36111 ft 464 kts 182°
2026-04-13 22:11 36.47315 -90.11873 36111 ft 464 kts 182°
2026-04-13 22:12 36.40874 -90.11264 36084 ft 464 kts 182°
2026-04-13 22:12 36.34440 -90.10657 36098 ft 463 kts 182°
2026-04-13 22:13 36.28010 -90.10053 36087 ft 463 kts 182°
2026-04-13 22:13 36.21589 -90.09443 36094 ft 463 kts 181°
2026-04-13 22:14 36.15207 -90.08830 36087 ft 463 kts 181°
2026-04-13 22:14 36.08778 -90.08220 36094 ft 463 kts 181°
2026-04-13 22:15 36.02352 -90.07619 36099 ft 463 kts 181°
2026-04-13 22:15 35.95916 -90.07019 36120 ft 463 kts 181°
2026-04-13 22:16 35.89485 -90.06419 36104 ft 463 kts 181°
2026-04-13 22:16 35.83063 -90.05820 36114 ft 462 kts 181°
2026-04-13 22:17 35.76690 -90.05227 36114 ft 461 kts 181°
2026-04-13 22:17 35.70289 -90.04631 36118 ft 461 kts 181°
2026-04-13 22:18 35.63897 -90.04038 36113 ft 460 kts 181°
2026-04-13 22:18 35.57499 -90.03444 36127 ft 460 kts 181°
2026-04-13 22:19 35.51113 -90.02856 36135 ft 460 kts 181°
2026-04-13 22:19 35.44764 -90.02271 36127 ft 460 kts 181°
2026-04-13 22:20 35.38380 -90.01682 36129 ft 460 kts 181°
2026-04-13 22:20 35.31997 -90.01094 36133 ft 460 kts 181°
2026-04-13 22:21 35.25611 -90.00508 36141 ft 460 kts 181°
2026-04-13 22:21 35.19231 -89.99922 36147 ft 460 kts 181°
2026-04-13 22:22 35.12847 -89.99338 36142 ft 460 kts 181°
2026-04-13 22:22 35.06495 -89.98757 36148 ft 460 kts 181°
2026-04-13 22:23 35.00119 -89.98488 36138 ft 453 kts 191°
2026-04-13 22:23 34.93919 -89.99648 36141 ft 450 kts 194°
2026-04-13 22:24 34.87732 -90.00924 36149 ft 451 kts 194°
2026-04-13 22:24 34.81533 -90.02158 36147 ft 452 kts 194°
2026-04-13 22:25 34.75352 -90.03353 36153 ft 452 kts 193°
2026-04-13 22:25 34.69131 -90.04549 36148 ft 452 kts 193°
2026-04-13 22:26 34.62923 -90.05740 36151 ft 452 kts 193°
2026-04-13 22:26 34.56706 -90.06932 36163 ft 451 kts 193°
2026-04-13 22:27 34.50497 -90.08122 36160 ft 452 kts 193°
2026-04-13 22:27 34.44291 -90.09310 36163 ft 452 kts 193°
2026-04-13 22:28 34.38083 -90.10497 36164 ft 451 kts 193°
2026-04-13 22:28 34.31917 -90.11671 36167 ft 451 kts 193°
2026-04-13 22:29 34.25710 -90.12844 36163 ft 451 kts 193°
2026-04-13 22:29 34.19505 -90.14015 36170 ft 450 kts 193°
2026-04-13 22:30 34.13312 -90.15182 36167 ft 450 kts 193°
2026-04-13 22:30 34.07124 -90.16347 36167 ft 450 kts 193°
2026-04-13 22:31 34.00918 -90.17516 36173 ft 450 kts 193°
2026-04-13 22:31 33.94725 -90.18680 36169 ft 450 kts 193°
2026-04-13 22:32 33.88568 -90.19834 36169 ft 450 kts 193°
2026-04-13 22:32 33.82387 -90.20990 36180 ft 449 kts 193°
2026-04-13 22:33 33.76201 -90.22148 36174 ft 449 kts 193°
2026-04-13 22:33 33.71071 -90.23106 36178 ft 449 kts 193°
2026-04-13 22:34 33.58726 -90.25408 36175 ft 448 kts 193°
2026-04-13 22:35 33.52558 -90.26556 36175 ft 448 kts 193°
2026-04-13 22:35 33.46385 -90.27658 36178 ft 449 kts 190°
2026-04-13 22:36 33.40130 -90.27770 36175 ft 453 kts 184°
2026-04-13 22:36 33.33816 -90.27647 36177 ft 453 kts 184°
2026-04-13 22:37 33.27506 -90.27543 36180 ft 453 kts 184°
2026-04-13 22:37 33.21202 -90.27477 36188 ft 452 kts 184°
2026-04-13 22:38 33.14943 -90.27422 36186 ft 452 kts 184°
2026-04-13 22:38 33.08646 -90.27368 36187 ft 452 kts 184°
2026-04-13 22:39 33.02359 -90.27314 36189 ft 451 kts 184°
2026-04-13 22:39 32.96081 -90.27259 36190 ft 451 kts 184°
2026-04-13 22:40 32.89810 -90.27206 36183 ft 450 kts 184°
2026-04-13 22:40 32.83538 -90.27151 36192 ft 450 kts 184°
2026-04-13 22:41 32.77278 -90.27098 36193 ft 449 kts 184°
2026-04-13 22:41 32.71072 -90.27045 36193 ft 449 kts 184°
2026-04-13 22:42 32.64822 -90.26991 36180 ft 448 kts 184°
2026-04-13 22:42 32.58608 -90.26936 36188 ft 447 kts 184°
2026-04-13 22:43 32.52379 -90.26883 36181 ft 447 kts 183°
2026-04-13 22:43 32.46153 -90.26830 36202 ft 447 kts 183°
2026-04-13 22:44 32.39936 -90.26777 36199 ft 447 kts 183°
2026-04-13 22:44 32.33709 -90.26723 36198 ft 447 kts 183°
2026-04-13 22:45 32.27493 -90.26670 36206 ft 447 kts 183°
2026-04-13 22:45 32.21315 -90.26618 36200 ft 447 kts 183°
2026-04-13 22:46 32.15089 -90.26565 36201 ft 447 kts 183°
2026-04-13 22:46 32.08864 -90.26511 36198 ft 447 kts 183°
2026-04-13 22:47 32.02638 -90.26460 36197 ft 447 kts 183°
2026-04-13 22:47 31.96414 -90.26405 36197 ft 447 kts 183°
2026-04-13 22:48 31.90184 -90.26352 36198 ft 448 kts 183°
2026-04-13 22:48 31.83948 -90.26300 36195 ft 448 kts 183°
2026-04-13 22:49 31.77750 -90.26247 36201 ft 448 kts 183°
2026-04-13 22:49 31.71510 -90.26194 36200 ft 448 kts 183°
2026-04-13 22:50 31.65260 -90.26134 36207 ft 448 kts 183°
2026-04-13 22:50 31.59034 -90.26073 36193 ft 445 kts 184°
2026-04-13 22:51 31.52869 -90.26012 36198 ft 441 kts 184°
2026-04-13 22:51 31.49798 -90.25984 35878 ft 445 kts 184°
2026-04-13 22:51 31.46693 -90.25957 35215 ft 446 kts 183°
2026-04-13 22:51 31.43627 -90.25928 34442 ft 446 kts 183°
2026-04-13 22:52 31.40526 -90.25898 33571 ft 446 kts 182°
2026-04-13 22:52 31.37418 -90.25867 32658 ft 447 kts 182°
2026-04-13 22:52 31.34293 -90.25836 31747 ft 448 kts 182°
2026-04-13 22:52 31.31175 -90.25807 30822 ft 449 kts 182°
2026-04-13 22:53 31.28047 -90.25698 30115 ft 447 kts 180°
2026-04-13 22:53 31.24969 -90.25484 29354 ft 441 kts 179°
2026-04-13 22:53 31.21926 -90.25231 28690 ft 435 kts 179°
2026-04-13 22:53 31.18928 -90.24978 28012 ft 429 kts 179°
2026-04-13 22:54 31.15962 -90.24734 27337 ft 424 kts 179°
2026-04-13 22:54 31.13033 -90.24504 26680 ft 420 kts 179°
2026-04-13 22:54 31.10125 -90.24283 26031 ft 416 kts 179°
2026-04-13 22:54 31.07245 -90.24068 25395 ft 412 kts 179°
2026-04-13 22:55 31.04398 -90.23857 24763 ft 409 kts 178°
2026-04-13 22:55 31.01608 -90.23650 24121 ft 407 kts 178°
2026-04-13 22:55 30.98771 -90.23440 23229 ft 409 kts 178°
2026-04-13 22:55 30.95933 -90.23230 22400 ft 408 kts 178°
2026-04-13 22:56 30.93124 -90.22796 21653 ft 408 kts 165°
2026-04-13 22:56 30.90554 -90.21408 20995 ft 409 kts 148°
2026-04-13 22:56 30.88429 -90.19208 20358 ft 409 kts 133°
2026-04-13 22:56 30.86881 -90.16448 19697 ft 410 kts 115°
2026-04-13 22:57 30.85869 -90.13348 19056 ft 408 kts 111°
2026-04-13 22:57 30.84956 -90.10227 18373 ft 406 kts 110°
2026-04-13 22:57 30.84070 -90.07110 17601 ft 404 kts 109°
2026-04-13 22:57 30.83187 -90.04015 16943 ft 400 kts 110°
2026-04-13 22:58 30.82304 -90.00963 16299 ft 396 kts 110°
2026-04-13 22:58 30.81422 -89.97952 15662 ft 392 kts 110°
2026-04-13 22:58 30.80549 -89.95001 15016 ft 390 kts 109°
2026-04-13 22:58 30.79664 -89.92026 14365 ft 388 kts 109°
2026-04-13 22:59 30.78779 -89.89064 13664 ft 386 kts 109°
2026-04-13 22:59 30.77900 -89.86127 13000 ft 382 kts 109°
2026-04-13 22:59 30.77028 -89.83221 12328 ft 379 kts 110°
2026-04-13 22:59 30.76165 -89.80347 11694 ft 375 kts 110°
2026-04-13 23:00 30.75309 -89.77498 11059 ft 371 kts 110°
2026-04-13 23:00 30.74478 -89.74729 10844 ft 355 kts 110°
2026-04-13 23:00 30.73681 -89.72076 10644 ft 340 kts 110°
2026-04-13 23:00 30.72913 -89.69526 10493 ft 326 kts 110°
2026-04-13 23:01 30.72180 -89.67097 10359 ft 309 kts 110°
2026-04-13 23:01 30.71491 -89.64810 10133 ft 293 kts 110°
2026-04-13 23:01 30.70829 -89.62615 9576 ft 290 kts 111°
2026-04-13 23:01 30.70160 -89.60401 8993 ft 288 kts 111°
2026-04-13 23:02 30.69502 -89.58225 8506 ft 282 kts 111°
2026-04-13 23:02 30.68857 -89.56097 8001 ft 277 kts 112°
2026-04-13 23:02 30.68221 -89.53999 7474 ft 275 kts 112°
2026-04-13 23:02 30.67591 -89.51917 6968 ft 271 kts 112°
2026-04-13 23:03 30.66978 -89.49892 6476 ft 268 kts 112°
2026-04-13 23:03 30.66360 -89.47852 5872 ft 267 kts 112°
2026-04-13 23:03 30.65744 -89.45823 5325 ft 265 kts 112°
2026-04-13 23:03 30.65130 -89.43803 4763 ft 265 kts 112°
2026-04-13 23:04 30.64523 -89.41805 4294 ft 260 kts 112°
2026-04-13 23:04 30.63923 -89.39830 3755 ft 258 kts 112°
2026-04-13 23:04 30.63327 -89.37870 3254 ft 255 kts 112°
2026-04-13 23:04 30.62746 -89.35957 2865 ft 249 kts 112°
2026-04-13 23:05 30.62168 -89.34063 2355 ft 247 kts 111°
2026-04-13 23:05 30.61600 -89.32205 2053 ft 237 kts 112°
2026-04-13 23:05 30.60806 -89.30647 2003 ft 212 kts 132°
2026-04-13 23:05 30.59826 -89.29465 1999 ft 196 kts 135°
2026-04-13 23:06 30.58890 -89.28404 1995 ft 180 kts 136°
2026-04-13 23:06 30.58027 -89.27416 1993 ft 172 kts 136°
2026-04-13 23:06 30.57189 -89.26452 1991 ft 167 kts 136°
2026-04-13 23:06 30.56372 -89.25504 1992 ft 165 kts 136°
2026-04-13 23:07 30.55559 -89.24565 2004 ft 167 kts 136°
2026-04-13 23:07 30.54706 -89.23576 2015 ft 177 kts 136°
2026-04-13 23:07 30.53827 -89.22557 2017 ft 178 kts 136°
2026-04-13 23:07 30.52965 -89.21555 1990 ft 176 kts 135°
2026-04-13 23:08 30.52127 -89.20580 2017 ft 167 kts 136°
2026-04-13 23:08 30.51303 -89.19625 2020 ft 171 kts 136°
2026-04-13 23:08 30.50446 -89.18629 2018 ft 174 kts 136°
2026-04-13 23:08 30.49608 -89.17659 2033 ft 161 kts 136°
2026-04-13 23:09 30.48882 -89.16812 2000 ft 136 kts 137°
2026-04-13 23:09 30.48230 -89.16053 1864 ft 130 kts 137°
2026-04-13 23:09 30.47595 -89.15320 1696 ft 128 kts 137°
2026-04-13 23:09 30.46970 -89.14593 1543 ft 126 kts 136°
2026-04-13 23:10 30.46344 -89.13864 1370 ft 129 kts 136°
2026-04-13 23:10 30.45718 -89.13139 1209 ft 128 kts 136°
2026-04-13 23:10 30.45095 -89.12415 1041 ft 124 kts 137°
2026-04-13 23:10 30.44503 -89.11725 870 ft 116 kts 137°
2026-04-13 23:11 30.43917 -89.11046 735 ft 124 kts 137°
2026-04-13 23:11 30.43300 -89.10329 567 ft 127 kts 137°
2026-04-13 23:11 30.42692 -89.09621 388 ft 121 kts 138°
2026-04-13 23:11 30.42113 -89.08948 236 ft 117 kts 137°
2026-04-13 23:12 30.41510 -89.08248 96 ft 127 kts 135°
2026-04-13 23:12 30.40904 -89.07547 30 ft 109 kts 135°
2026-04-13 23:12 30.40474 -89.07053 33 ft 65 kts 135°
2026-04-13 23:12 30.40230 -89.06768 30 ft 39 kts 135°
2026-04-13 23:13 30.40201 -89.06637 31 ft 17 kts 18°
2026-04-13 23:13 30.40332 -89.06632 31 ft 23 kts 356°
2026-04-13 23:13 30.40475 -89.06761 29 ft 28 kts 314°
2026-04-13 23:13 30.40608 -89.06917 29 ft 26 kts 314°
2026-04-13 23:14 30.40736 -89.07061 30 ft 25 kts 315°
2026-04-13 23:14 30.40852 -89.07195 29 ft 23 kts 315°
2026-04-13 23:14 30.40964 -89.07324 29 ft 22 kts 315°
2026-04-13 23:14 30.41077 -89.07414 29 ft 18 kts 17°
2026-04-13 23:15 30.41169 -89.07328 29 ft 12 kts 40°
2026-04-13 23:15 30.41211 -89.07284 29 ft 2 kts 43°
2026-04-13 23:15 30.41213 -89.07281 29 ft 0 kts 43°